KCFS

Details ICAO KCFS
Name TUSCOLA AREA
Region United States
Timezone America/Detroit (UTC-4.0)
Plans Departing 0
Arriving 1
Stats Elevation 701 ft / 214 m (AMSL)
Location 43.459348° -83.444648°
Runways 2
Magnetic Variation 7.508° W
Sunrise 2018-05-27 10:00:14 UTC / 2018-05-27 06:00:14 Local
Sunset 2018-05-28 01:04:34 UTC / 2018-05-27 21:04:34 Local
Advertisement - Login to hide

Runways

ID Width Length Bearing (true) Bearing (mag) Surface Threshold Offset Overrun Length
05 75 ft / 23 m 4,295 ft / 1,309 m 51.68° 59.19° Asphalt 0 ft / 0 m 0 ft / 0 m
12 110 ft / 34 m 2,296 ft / 700 m 120.30° 127.81° Grass 0 ft / 0 m 0 ft / 0 m
23 75 ft / 23 m 4,295 ft / 1,309 m 231.69° 239.20° Asphalt 0 ft / 0 m 0 ft / 0 m
30 110 ft / 34 m 2,296 ft / 700 m 300.30° 307.81° Grass 500 ft / 152 m 0 ft / 0 m

Map

Weather


0- 5 10 15 20 25 30 35+ Temperature / ° C

Clouds and Precipitation
Forecast for 2018-05-27 12:00 UTC. Updated 3 hours ago

Ground ~20,000 ft ~40,000 ft Winds

METAR

KCFS 271355Z AUTO 21004KT 10SM CLR 23/20 A2988 RMK AO2 T02300196

TAF

Not found

Frequencies

Recorded 119.27 MHz AWOS 3
Approach 120.95 MHz SAGINAW APP/DEP
Unicom 123.00 MHz CTAF/UNICOM
Warning: Do not use this data for real-world aviation or navigation. No guarantee of current accuracy is given.